Regional Weather Roundup
Issued by NWS

Home | Current Version | Previous Version | Graphics & Text | Print | Product List | Glossary On
Versions: 1 2 3 4 5 6 7 8 9 10 11 12 13 14 15 16 17 18 19 20 21 22 23 24 25 26 27 28 29 30 31 32 33 34 35 36 37 38 39 40 41 42 43 44 45 46 47 48 49 50
000
ASUS43 KOAX 310502
RWRNE

WEATHER ROUNDUP FOR NEBRASKA
NATIONAL WEATHER SERVICE OMAHA NE
1200 AM CDT MON AUG 31 2015

NOTES: SATELLITE DATA IS BEING USED TO AUGMENT CLOUD COVER ABOVE
       12000 FEET.
       "FAIR" INDICATES FEW OR NO CLOUDS BELOW 12,000 FEET WITH NO
       SIGNIFICANT WEATHER AND/OR OBSTRUCTIONS TO VISIBILITY.

  * THESE STATIONS DO NOT REPORT WEATHER SUCH AS RAIN...SNOW OR FOG.

NEZ001>004-019>022-054>056-310600-
NEBRASKA PANHANDLE

CITY           SKY/WX    TMP DP  RH WIND       PRES   REMARKS
SCOTTSBLUFF    CLOUDY    75  51  43 MISG      29.88R
ALLIANCE       CLEAR     74  49  41 S14       29.87S
CHADRON        PTCLDY    70  49  47 CALM      29.81S
KIMBALL        MOCLDY    73  45  37 S9        29.97S
SIDNEY         CLEAR     71  49  45 SW5       29.97R
$$

NEZ057>060-069>072-079>082-310600-
SOUTHWEST NEBRASKA

CITY           SKY/WX    TMP DP  RH WIND       PRES   REMARKS
NORTH PLATTE   CLEAR     69  56  62 SE10      29.91S
IMPERIAL       CLEAR     73  40  30 S14       29.93S
LEXINGTON      CLEAR     68  64  86 S13       29.94F
MC COOK        CLEAR     68  50  52 SE8       29.93F
OGALLALA       CLEAR     73  40  29 S14G21    29.90R
$$

NEZ005>010-023>029-035>040-094-310600-
NORTH CENTRAL NEBRASKA

CITY           SKY/WX    TMP DP  RH WIND       PRES   REMARKS
VALENTINE      CLEAR     74  58  57 S18G29    29.83R
AINSWORTH      CLEAR     71  60  69 S18G28    29.86S
BROKEN BOW     CLEAR     68  62  81 S14G25    29.93S
O`NEILL        PTCLDY    68  66  91 S15G23    29.89S
ORD            CLEAR     67  63  87 S9        29.91S
THEDFORD       CLEAR     72  60  65 S18G25    29.89S
$$

NEZ041-046>049-061>064-073>077-083>087-310600-
SOUTH CENTRAL NEBRASKA

CITY           SKY/WX    TMP DP  RH WIND       PRES   REMARKS
GRAND ISLAND   FAIR      67  64  90 S14       29.96S
AURORA         CLEAR     66  65  97 S7        29.96F
HASTINGS       CLEAR     66  63  90 S10       29.96S
HEBRON         CLEAR     65  63  93 SE5       29.97S
HOLDREGE       CLEAR     65  62  91 SE12      29.96S
KEARNEY *      CLEAR     64  61  88 S13       29.95F
YORK           MOCLDY    64  64 100 S7        29.97S
$$

NEZ011>018-030>034-042>045-310600-
NORTHEAST NEBRASKA

CITY           SKY/WX    TMP DP  RH WIND       PRES   REMARKS
NORFOLK        PTCLDY    68  65  90 S13       29.93S
ALBION         PTCLDY    66  63  89 SE8       29.94S
BLAIR          FAIR      67  65  91 S6        29.97S
COLUMBUS *     CLEAR    N/A N/A N/A S5        29.96S
FREMONT        CLEAR     70  66  88 SE7       29.97S
TEKAMAH        FOG       62  61  96 SW3       29.96R VSB 1
$$

NEZ050>053-065>068-078-088>093-310600-
SOUTHEAST NEBRASKA

CITY           SKY/WX    TMP DP  RH WIND       PRES   REMARKS
LINCOLN        CLEAR     66  64  93 S7        29.97F
OMAHA EPPLEY   PTCLDY    69  67  93 S7        29.97S
BEATRICE       CLEAR     67  64  93 SE3       29.98S
FALLS CITY     PTCLDY    68  67  96 S3        29.97R FOG
NEBRASKA CITY  PTCLDY    70  68  94 SE5       29.99S
PLATTSMOUTH    CLEAR     67  65  93 SE6       29.98S FOG
$$

NEZ044-045-051>053-067-310600-
OMAHA AREA

CITY           SKY/WX    TMP DP  RH WIND       PRES   REMARKS
EPPLEY FIELD   PTCLDY    69  67  93 S7        29.97S
BLAIR          CLEAR     67  65  91 S6        29.97S
FREMONT        CLEAR     70  66  88 SE7       29.97S
MILLARD        CLEAR     67  66  96 CALM      29.97R FOG
OFFUTT AFB     CLEAR     60  59  99 E3        29.97R
PLATTSMOUTH    CLEAR     67  65  93 SE6       29.98S FOG
WAHOO          FAIR      65  64  96 S6        29.97S FOG
$$



USA.gov is the U.S. government's official web portal to all federal, state and local government web resources and services.